Temp
68 69 71 71 70 70 70 70 71 71 71 71 72 71 70 71 71 71 72 72 71 72 71 70 70 70 68 67 68 68 66 66
67 68 69 69 70 69 69 69 69 70 70 70 69 69 69 70 70 71 71 71 71 71 70 69 69 68 67 67 66 67 65 65
65 67 67 67 68 69 69 69 69 69 70 69 67 69 68 69 69 70 70 70 70 70 69 68 68 67 67 67 66 64 64 64
65 66 68 67 69 70 70 69 70 70 70 69 70 66 66 68 68 68 69 69 69 69 69 67 67 65 64 66 65 66 65 64
65 66 67 68 69 70 71 69 70 70 68 69 70 66 65 65 64 65 65 68 65 66 65 64 64 63 64 63 64 66 64 64
67 66 66 67 68 70 70 70 69 70 68 68 69 67 64 63 64 64 64 64 64 66 63 62 63 64 64 63 65 64 63 63
66 66 66 67 68 69 70 70 70 70 67 70 69 69 67 64 63 63 63 64 63 66 65 62 62 63 63 63 65 64 64 63
68 67 67 67 67 68 69 70 71 71 70 72 72 71 68 67 63 63 63 66 64 65 64 61 62 64 62 63 63 63 63 61
68 68 68 67 67 67 68 69 70 70 70 71 71 70 69 67 65 64 64 66 65 65 61 61 62 64 63 63 63 64 62 61
70 72 68 68 68 68 68 68 68 68 69 70 71 70 69 67 66 65 65 65 65 63 61 60 60 61 61 62 62 63 63 62
72 70 68 68 69 68 68 68 67 68 68 68 70 70 69 68 67 66 65 65 64 64 62 61 60 60 61 60 61 61 61 63
71 71 70 68 68 68 67 66 67 67 67 68 68 70 69 68 66 65 64 65 64 63 62 60 61 62 63 60 60 60 60 60
65 67 68 68 67 67 66 66 65 65 67 68 68 68 69 67 67 65 65 65 64 64 61 61 58 61 59 58 58 59 59 59
66 68 67 68 68 66 64 65 65 67 66 66 68 68 68 68 67 66 65 64 64 62 62 60 59 61 59 58 53 55 58 59
63 64 64 62 63 62 62 63 63 63 63 64 65 67 67 68 67 66 65 65 63 63 63 62 59 60 60 59 54 53 56 57
61 63 63 64 63 62 62 62 61 64 65 66 65 65 65 67 66 66 65 64 63 63 63 62 62 59 60 61 59 59 55 51
60 61 61 62 62 62 60 59 60 60 63 63 65 64 65 66 65 65 65 65 64 63 62 62 62 61 60 60 58 58 58 56
59 61 60 61 60 61 60 60 60 59 61 63 64 64 63 65 66 65 65 65 64 63 63 63 62 62 62 61 60 59 57 54
61 61 59 59 59 58 58 59 59 59 60 61 63 62 61 62 64 64 65 65 65 64 63 63 62 61 61 61 61 62 64 62
60 60 58 58 58 57 56 57 57 58 60 60 61 61 61 62 63 64 65 65 64 64 63 63 62 61 61 60 60 61 62 63
MSLP
1007.58 1007.46 1007.72 1008.05 1008.47 1008.80 1009.36 1009.87 1010.35 1010.84 1011.19 1011.71 1012.17 1012.54 1012.85 1013.20 1013.49 1013.75 1013.92 1014.18 1014.44 1014.71 1015.06 1015.35 1015.57 1015.90 1016.31 1016.38 1016.79 1017.12 1017.26 1017.56
1007.81 1007.60 1007.73 1008.19 1008.58 1008.99 1009.38 1009.84 1010.25 1010.63 1011.01 1011.47 1012.07 1012.55 1012.99 1013.18 1013.46 1013.80 1014.02 1014.27 1014.50 1014.70 1015.14 1015.45 1015.61 1015.89 1016.25 1016.61 1016.84 1017.23 1017.43 1017.73
1007.73 1007.76 1007.88 1008.27 1008.69 1009.14 1009.60 1009.92 1010.21 1010.72 1011.13 1011.39 1011.98 1012.49 1012.93 1013.24 1013.38 1013.74 1014.01 1014.33 1014.56 1014.67 1015.11 1015.35 1015.48 1015.81 1016.29 1016.54 1016.63 1017.24 1017.55 1017.94
1007.67 1007.68 1008.04 1008.30 1008.90 1009.36 1009.73 1010.03 1010.33 1010.62 1011.11 1011.42 1011.83 1012.38 1012.77 1013.10 1013.39 1013.67 1014.02 1014.29 1014.67 1014.81 1015.12 1015.53 1015.75 1016.20 1016.72 1016.61 1016.27 1016.97 1017.68 1018.01
1007.27 1007.41 1007.83 1008.21 1008.76 1009.24 1009.72 1010.19 1010.26 1010.59 1010.86 1011.20 1011.64 1012.35 1012.80 1013.10 1013.50 1013.79 1014.17 1014.37 1014.85 1015.09 1015.34 1015.72 1016.03 1016.44 1016.92 1016.84 1016.85 1017.00 1017.55 1018.05
1006.79 1007.41 1007.80 1008.21 1008.37 1008.98 1009.40 1009.99 1010.26 1010.42 1010.82 1011.13 1011.51 1012.08 1012.75 1013.13 1013.45 1013.64 1014.15 1014.35 1014.84 1015.22 1015.60 1015.83 1016.21 1016.47 1016.64 1017.10 1017.10 1017.44 1017.66 1017.90
1006.59 1006.90 1007.35 1007.84 1008.45 1008.92 1009.32 1009.65 1010.12 1010.31 1010.76 1011.01 1011.45 1011.87 1012.46 1012.99 1013.44 1013.69 1013.96 1014.33 1014.81 1015.23 1015.63 1016.02 1016.06 1016.51 1016.72 1016.87 1017.47 1017.62 1017.77 1017.89
1006.29 1006.72 1006.91 1007.34 1007.80 1008.40 1008.86 1009.19 1009.52 1009.97 1010.31 1010.58 1010.93 1011.47 1012.05 1012.80 1013.34 1013.69 1013.94 1014.19 1014.72 1015.17 1015.52 1015.92 1016.11 1016.41 1016.77 1016.97 1017.24 1017.86 1017.93 1017.99
1005.99 1006.02 1006.56 1006.87 1007.04 1007.58 1008.26 1008.76 1009.18 1009.72 1009.97 1010.34 1010.68 1011.13 1011.60 1012.21 1012.91 1013.41 1013.69 1014.11 1014.59 1015.13 1015.55 1015.81 1016.07 1016.37 1016.64 1016.62 1017.02 1017.47 1017.98 1018.21
1004.36 1005.08 1005.61 1006.14 1006.56 1006.86 1007.44 1008.13 1008.87 1009.27 1009.57 1010.01 1010.24 1010.69 1011.15 1011.86 1012.35 1012.86 1013.28 1013.77 1014.24 1014.87 1015.37 1015.74 1016.08 1016.34 1016.74 1016.93 1017.34 1017.59 1017.89 1018.41
1003.35 1003.96 1004.64 1005.11 1005.79 1006.41 1006.97 1007.57 1008.43 1008.91 1009.17 1009.48 1009.86 1010.25 1010.65 1011.23 1011.78 1012.24 1012.74 1013.39 1013.97 1014.53 1015.13 1015.40 1016.06 1016.35 1016.64 1017.03 1017.34 1017.56 1017.93 1018.24
1002.43 1002.84 1003.48 1004.48 1005.33 1006.15 1006.91 1007.43 1007.72 1008.33 1008.70 1008.94 1009.40 1009.83 1010.21 1010.65 1011.27 1011.83 1012.15 1012.96 1013.56 1014.17 1014.70 1015.32 1015.63 1016.08 1016.54 1017.14 1017.50 1017.83 1017.90 1018.35
1001.89 1002.64 1003.10 1003.82 1004.78 1005.60 1006.32 1006.68 1007.24 1007.51 1007.90 1008.19 1008.82 1009.25 1009.61 1010.09 1010.40 1011.13 1011.58 1012.02 1012.46 1013.12 1014.24 1014.99 1015.69 1015.97 1016.78 1017.58 1017.78 1018.06 1018.20 1018.37
1000.73 1001.96 1002.47 1003.09 1003.82 1004.74 1005.39 1005.91 1006.33 1006.36 1007.42 1007.73 1008.01 1008.44 1008.84 1009.37 1009.81 1010.29 1010.81 1011.59 1012.02 1012.48 1013.26 1014.30 1015.19 1015.59 1016.15 1016.90 1017.57 1018.27 1018.27 1018.41
1001.21 1001.75 1002.34 1003.35 1003.81 1004.57 1005.33 1005.47 1006.14 1006.70 1007.15 1007.40 1007.63 1008.00 1008.39 1008.87 1009.30 1009.82 1010.16 1010.97 1011.45 1011.65 1012.36 1013.10 1014.11 1014.96 1015.08 1015.81 1016.49 1016.96 1017.63 1018.16
1002.45 1002.46 1002.75 1003.14 1003.56 1004.29 1004.87 1005.26 1005.81 1006.13 1006.29 1006.56 1006.91 1007.36 1007.86 1008.23 1008.78 1009.22 1009.59 1010.13 1010.90 1011.22 1011.61 1012.09 1012.78 1013.85 1014.73 1014.70 1014.96 1015.34 1016.56 1017.52
1003.15 1002.95 1002.88 1003.26 1003.50 1003.80 1004.76 1005.73 1006.09 1006.04 1006.04 1006.33 1006.61 1006.96 1007.21 1007.63 1008.05 1008.52 1008.99 1009.47 1010.00 1010.47 1011.04 1011.65 1012.03 1012.46 1013.37 1014.04 1014.75 1014.92 1015.03 1015.90
1003.43 1003.44 1003.73 1003.93 1004.44 1004.47 1004.32 1005.48 1006.01 1006.22 1006.23 1006.26 1006.39 1006.66 1006.81 1006.98 1007.29 1007.66 1007.95 1008.51 1009.19 1009.70 1010.18 1010.70 1011.37 1011.54 1012.39 1012.93 1013.32 1013.84 1014.14 1014.73
1003.01 1004.19 1005.09 1004.85 1004.96 1005.24 1005.00 1005.59 1006.27 1006.43 1006.26 1006.24 1006.35 1006.58 1006.59 1006.44 1006.54 1006.96 1007.12 1007.56 1008.22 1008.95 1009.58 1010.00 1010.51 1010.98 1011.43 1011.93 1012.43 1012.57 1012.83 1013.39
1003.61 1003.80 1004.60 1005.68 1005.17 1004.95 1004.69 1005.69 1006.20 1006.43 1006.24 1006.10 1006.06 1006.20 1006.14 1006.04 1005.92 1005.95 1006.37 1006.77 1007.49 1008.02 1008.78 1009.20 1009.72 1010.26 1010.70 1011.19 1011.56 1011.92 1012.29 1012.50
Wind_Speed
9 12 13 15 14 17 17 17 16 15 15 13 12 12 14 14 12 10 9 9 10 11 13 13 12 12 12 10 10 9 7 5
8 7 8 9 10 12 14 15 15 15 15 14 13 12 13 13 12 11 10 9 10 11 12 11 11 11 12 11 8 8 5 4
6 8 6 6 6 9 11 13 14 12 12 13 11 7 9 10 10 12 10 10 10 10 11 11 11 10 12 12 12 3 5 3
8 9 11 9 5 9 9 8 8 9 8 10 8 6 6 8 8 12 10 10 10 9 8 8 7 4 3 5 3 7 4 4
10 10 10 12 9 8 5 4 6 6 8 9 10 6 4 4 3 4 3 7 3 4 3 3 4 5 4 3 3 5 4 3
11 9 10 9 8 9 8 7 6 7 6 9 8 6 6 5 4 5 4 3 5 4 2 1 3 4 6 3 5 4 3 3
12 12 12 11 12 9 9 8 8 7 4 8 7 7 7 5 4 5 4 4 4 5 6 3 4 5 5 6 3 5 6 4
10 13 12 12 11 13 11 10 12 9 8 9 10 8 7 7 6 6 5 6 4 5 7 4 4 5 6 5 5 4 5 4
14 15 13 15 15 13 11 10 11 11 10 14 11 8 8 9 7 7 6 8 9 7 5 3 4 4 5 5 4 5 3 5
17 14 16 16 14 12 10 10 10 10 10 11 16 11 9 9 8 8 7 8 8 7 5 4 4 4 4 4 4 4 5 4
17 16 17 18 14 10 10 11 8 8 8 9 15 13 12 10 8 8 10 8 8 7 5 5 4 4 4 4 3 5 5 5
17 15 16 14 8 7 6 7 8 7 8 9 12 12 14 12 8 9 10 8 8 8 9 4 4 6 5 5 3 3 4 5
10 12 12 12 10 10 7 9 8 7 8 11 11 12 15 14 10 11 11 12 12 12 6 9 2 5 4 3 2 4 5 4
16 15 14 12 10 7 3 5 5 9 7 8 11 13 14 13 12 11 12 9 11 11 12 6 3 8 5 5 3 2 3 5
7 9 9 7 7 5 2 4 3 3 4 5 8 10 11 13 13 11 12 10 10 13 13 14 8 7 9 5 4 4 4 3
6 8 9 7 8 5 4 3 3 4 6 8 8 10 10 13 12 12 12 10 11 12 12 12 12 9 6 5 2 5 4 3
6 6 8 7 7 9 6 3 1 0 2 5 8 7 11 13 13 15 13 11 13 14 12 11 11 11 10 9 6 2 3 4
6 10 8 8 7 6 11 7 2 2 2 4 5 7 6 12 14 14 14 13 13 13 14 16 13 11 10 10 11 8 6 4
12 12 7 6 8 6 9 7 3 3 4 4 5 6 5 8 12 13 12 14 13 12 13 14 13 12 12 11 9 11 7 9
11 16 12 6 9 8 10 8 4 3 3 3 4 5 5 6 8 10 11 13 12 14 11 11 13 11 13 11 9 9 9 8
Wind_Direction
179 173 170 161 162 160 159 161 164 164 164 163 165 156 153 159 159 163 156 160 159 158 144 143 145 139 128 109 117 119 123 129
179 168 159 162 165 161 161 163 167 168 166 163 162 158 161 163 157 162 162 166 176 174 149 144 149 137 126 125 119 135 127 125
176 161 150 145 155 168 163 166 167 169 166 162 154 166 166 166 162 156 165 177 187 177 157 163 151 149 141 136 129 122 135 146
186 164 167 149 152 170 174 168 178 175 174 169 167 161 166 167 166 167 173 178 186 180 174 160 135 117 88 132 153 135 148 146
189 176 167 164 164 172 179 180 177 179 172 170 172 154 160 153 150 160 160 168 168 164 161 140 139 115 134 182 109 135 137 152
182 173 171 173 161 176 180 182 187 188 189 171 172 167 168 168 168 157 162 156 153 179 136 148 147 148 150 156 136 137 142 165
193 173 176 173 172 176 183 187 192 189 188 178 173 178 178 166 161 164 162 155 153 174 188 196 166 125 118 130 107 166 184 167
185 192 183 172 176 180 184 186 194 194 191 200 201 189 176 178 168 172 170 172 172 181 195 189 154 130 117 133 140 184 182 159
198 193 183 183 184 178 183 186 187 193 197 199 194 187 182 180 181 179 177 182 185 192 187 166 139 151 163 131 144 149 158 163
196 192 188 187 190 182 182 184 188 191 192 195 199 195 183 180 183 186 178 178 181 188 175 157 158 159 136 147 156 159 158 185
203 189 188 191 189 180 179 175 179 191 186 191 200 196 193 191 188 182 175 182 185 181 174 168 177 156 156 149 155 160 157 166
206 193 190 182 172 149 157 168 182 181 187 190 189 200 196 192 185 180 174 183 182 179 181 178 180 166 148 147 119 150 148 174
179 180 177 164 170 171 173 183 190 182 193 188 184 197 199 196 192 187 186 190 190 181 156 173 130 154 111 124 109 163 162 191
166 180 171 174 172 170 156 165 195 192 187 189 189 195 199 200 197 192 186 191 187 180 170 156 146 170 157 133 164 206 190 196
118 132 130 141 151 127 111 89 83 130 180 201 203 195 202 200 198 195 185 191 195 185 179 174 174 185 175 145 155 194 172 178
73 113 122 132 141 138 134 146 165 194 194 206 204 197 197 198 193 199 186 188 196 194 185 186 175 185 188 225 189 139 178 166
121 98 90 86 100 112 105 102 275 345 176 196 209 211 205 203 194 192 191 191 194 190 184 193 192 177 193 190 212 181 189 147
95 101 92 79 63 100 98 89 24 318 264 225 221 229 215 209 202 197 193 188 190 195 193 191 195 189 192 192 199 189 185 178
122 102 105 125 112 75 99 92 119 220 242 229 239 244 234 219 195 196 191 191 191 191 195 194 192 196 188 197 200 213 199 199
122 134 114 66 70 89 59 43 22 329 284 244 219 216 232 234 203 187 188 184 189 185 192 192 191 203 199 200 203 207 206 197